AI9T Weather Reports


time (UTC)temp
C
wind
direction
speed
KPH
gust
KPH
rain 1hr
cm
rain 24hr
cm
rain mn
cm
humidity
%
barometer
mb
20260504013504 16 171 4.8 11.3 0.00 0.00 0.00 51 1009.6
20260504012504 16 166 8.0 14.5 0.00 0.00 0.00 51 1009.6
20260504012004 16 164 8.0 14.5 0.00 0.00 0.00 51 1009.7
20260504011004 16 173 8.0 14.5 0.00 0.00 0.00 51 1009.6
20260504004003 16 197 8.0 12.9 0.00 0.00 0.00 50 1009.5
20260504001503 17 172 8.0 20.9 0.00 0.00 0.00 48 1009.5
20260503235004 17 169 12.9 24.1 0.00 0.00 0.00 47 1009.7
20260503234004 17 191 12.9 32.2 0.00 0.00 0.00 46 1010.0
20260503233004 17 177 12.9 22.5 0.00 0.00 0.00 46 1010.3
20260503230503 18 198 11.3 29.0 0.00 0.00 0.00 46 1010.4
20260503225503 18 182 14.5 24.1 0.00 0.00 0.00 45 1010.4
20260503225004 17 191 11.3 22.5 0.00 0.00 0.00 48 1010.7
20260503223004 17 207 11.3 24.1 0.00 0.00 0.00 46 1011.2
20260503222503 17 200 11.3 25.7 0.00 0.00 0.00 47 1011.0
20260503222003 17 205 11.3 25.7 0.00 0.00 0.00 46 1011.1
20260503220503 17 210 17.7 32.2 0.00 0.00 0.00 46 1010.9
20260503215003 17 202 22.5 45.1 0.00 0.00 0.00 45 1010.5
20260503212503 17 183 20.9 41.8 0.00 0.00 0.00 46 1011.0
20260503211004 17 196 20.9 37.0 0.00 0.00 0.00 47 1011.1
20260503205503 17 178 16.1 32.2 0.00 0.00 0.00 46 1011.5
20260503204503 17 177 17.7 38.6 0.00 0.00 0.00 46 1011.9
20260503204003 16 200 16.1 29.0 0.00 0.00 0.00 47 1012.0
20260503203504 16 188 11.3 32.2 0.00 0.00 0.00 46 1012.1
20260503203004 16 183 14.5 41.8 0.00 0.00 0.00 46 1012.1
20260503201504 16 184 16.1 32.2 0.00 0.00 0.00 47 1011.8
20260503201003 16 182 12.9 37.0 0.00 0.00 0.00 49 1011.8
20260503200503 16 167 14.5 37.0 0.00 0.00 0.00 46 1012.4
20260503195504 16 169 16.1 37.0 0.00 0.00 0.00 46 1013.3
20260503194005 16 197 19.3 32.2 0.00 0.00 0.00 46 1013.8
20260503191505 16 198 16.1 32.2 0.00 0.00 0.00 46 1014.4
20260503191004 16 213 17.7 29.0 0.00 0.00 0.00 46 1014.3
20260503190004 17 188 20.9 38.6 0.00 0.00 0.00 43 1014.1
20260503185504 17 189 19.3 32.2 0.00 0.00 0.00 43 1014.3
20260503184504 17 184 19.3 37.0 0.00 0.00 0.00 45 1014.3
20260503181505 17 201 16.1 32.2 0.00 0.00 0.00 46 1015.2
20260503181004 17 192 14.5 32.2 0.00 0.00 0.00 47 1015.2
20260503180504 17 215 16.1 35.4 0.00 0.00 0.00 49 1015.2
20260503180004 17 199 20.9 35.4 0.00 0.00 0.00 47 1015.3
20260503175004 17 205 19.3 37.0 0.00 0.00 0.00 50 1015.6
20260503174504 16 176 22.5 37.0 0.00 0.00 0.00 48 1015.7
20260503174004 16 198 19.3 35.4 0.00 0.00 0.00 50 1016.0
20260503172504 16 198 19.3 35.4 0.00 0.00 0.00 48 1016.5
20260503130504 10 193 9.7 20.9 0.00 0.00 0.00 70 1018.7
20260503081004 2 342 0.0 0.0 0.00 0.00 0.00 89 1018.5
20260503072504 2 342 0.0 0.0 0.00 0.00 0.00 89 1018.4
20260503055004 3 342 0.0 0.0 0.00 0.00 0.00 89 1018.9
20260503054504 3 342 0.0 0.0 0.00 0.00 0.00 89 1018.9
20260503054004 3 342 0.0 0.0 0.00 0.00 0.00 88 1018.9
20260503053504 3 342 0.0 0.0 0.00 0.00 0.00 88 1018.9
20260503053004 3 342 0.0 0.0 0.00 0.00 0.00 88 1018.9
20260503052504 3 342 0.0 0.0 0.00 0.00 0.00 87 1018.9
20260503052004 3 342 0.0 0.0 0.00 0.00 0.00 87 1018.8
20260503051004 3 342 0.0 0.0 0.00 0.00 0.00 87 1018.9
20260503050005 3 342 0.0 0.0 0.00 0.00 0.00 85 1018.8
20260503044504 3 342 0.0 0.0 0.00 0.00 0.00 84 1018.8
20260503043004 4 342 0.0 0.0 0.00 0.00 0.00 84 1018.8
20260503042504 4 342 0.0 0.0 0.00 0.00 0.00 84 1018.8
20260503042004 4 342 0.0 0.0 0.00 0.00 0.00 84 1018.8
20260503041004 4 342 0.0 0.0 0.00 0.00 0.00 84 1018.8
20260503040504 4 342 0.0 0.0 0.00 0.00 0.00 84 1018.8
20260503040003 4 342 0.0 0.0 0.00 0.00 0.00 83 1018.9
20260503034504 4 342 0.0 0.0 0.00 0.00 0.00 80 1019.0
20260503033004 5 342 0.0 0.0 0.00 0.00 0.00 76 1018.9
20260503032004 5 342 0.0 0.0 0.00 0.00 0.00 74 1018.9
20260503030504 5 342 0.0 0.0 0.00 0.00 0.00 74 1018.8
20260503030004 5 342 0.0 0.0 0.00 0.00 0.00 72 1018.8
20260503025504 5 342 0.0 0.0 0.00 0.00 0.00 72 1018.8
20260503025004 5 342 0.0 0.0 0.00 0.00 0.00 71 1018.8
20260503024004 6 342 0.0 0.0 0.00 0.00 0.00 71 1018.8
20260503023004 6 342 0.0 0.0 0.00 0.00 0.00 71 1018.8
20260503022004 6 342 0.0 0.0 0.00 0.00 0.00 67 1018.7
20260503021504 6 342 0.0 0.0 0.00 0.00 0.00 68 1018.7
20260503021004 6 342 0.0 0.0 0.00 0.00 0.00 68 1018.7
20260503020003 7 342 0.0 0.0 0.00 0.00 0.00 65 1018.6